WET,Max TemperatureF,Mean TemperatureF,Min TemperatureF,Max Dew PointF,MeanDew PointF,Min DewpointF,Max Humidity, Mean Humidity, Min Humidity, Max Sea Level PressureIn, Mean Sea Level PressureIn, Min Sea Level PressureIn, Max VisibilityMiles, Mean VisibilityMiles, Min VisibilityMiles, Max Wind SpeedMPH, Mean Wind SpeedMPH, Max Gust SpeedMPH,PrecipitationIn, CloudCover, Events, WindDirDegrees
2012-11-1,73,68,62,64,61,57,100,86,66,29.98,29.81,29.70,9,5,2,28,14,39,0.43,5,Rain,255
2012-11-2,74,66,59,64,60,57,100,84,55,30.09,30.03,29.97,9,7,6,13,8,,0.00,3,,289
2012-11-3,83,74,66,63,62,59,83,64,37,30.06,30.01,29.91,9,6,1,25,11,37,0.00,3,,228
2012-11-4,84,75,66,63,61,59,78,59,38,30.01,29.97,29.86,12,8,6,22,12,,0.00,3,,242
2012-11-5,76,69,62,64,62,59,94,76,58,30.06,30.03,29.95,12,7,1,18,10,,0.00,4,Thunderstorm,286
2012-11-6,75,68,60,64,62,34,100,88,34,30.12,30.05,29.96,9,4,0,13,5,,0.02,5,Fog,356
2012-11-7,65,62,60,64,62,61,100,98,86,30.15,30.12,30.05,5,2,0,12,6,,0.00,7,Fog-Rain,38
2012-11-8,86,73,60,64,58,48,100,72,18,30.15,30.04,29.89,9,5,1,21,4,,0.00,3,,178
2012-11-9,78,68,59,63,57,49,100,69,32,30.01,29.96,29.88,9,5,4,18,11,,0.00,5,Rain,277
2012-11-10,64,60,55,55,54,52,100,84,68,30.01,29.96,29.92,5,5,5,10,4,,0.00,5,Rain-Thunderstorm,84
2012-11-11,57,52,46,54,46,39,94,78,67,29.98,29.85,29.77,6,6,5,30,16,41,0.04,5,Rain,244
2012-11-12,55,50,46,55,47,41,100,90,77,30.01,29.95,29.86,9,4,2,31,10,40,0.79,6,Rain,355
2012-11-13,55,52,49,55,52,50,100,96,88,30.04,29.98,29.94,5,3,2,29,20,41,0.24,7,Rain,344
2012-11-14,64,58,51,54,52,50,100,85,56,30.04,30.02,29.97,9,6,4,9,3,,0.00,4,,165
2012-11-15,68,56,43,57,51,44,100,90,58,30.07,30.04,30.00,9,5,0,13,4,,0.00,3,Fog,259
2012-11-16,68,60,51,59,56,52,100,92,64,30.07,29.99,29.89,9,4,0,8,3,,0.00,5,Fog,307
2012-11-17,69,60,51,57,54,52,100,81,48,30.12,29.84,29.77,9,6,5,24,8,,0.12,4,Rain,240
2012-11-18,62,58,55,54,51,49,88,76,62,29.95,29.83,29.77,12,7,6,22,13,,0.08,5,,252
2012-11-19,63,56,50,55,53,48,100,89,62,30.14,30.06,29.96,9,6,5,8,6,,0.00,5,Rain,232
2012-11-20,69,58,46,55,51,46,100,82,42,30.15,30.10,30.02,16,8,6,8,4,,0.00,2,,232
2012-11-21,66,56,45,54,50,44,94,82,55,30.16,30.11,30.05,12,9,6,9,5,,0.00,2,,257
2012-11-22,64,57,50,55,52,48,100,90,60,30.21,30.17,30.12,12,5,1,5,3,,0.00,5,,294
2012-11-23,68,58,48,59,53,49,100,88,56,30.22,30.17,30.09,9,4,0,12,3,,0.00,3,Fog,339
2012-11-24,75,60,46,59,49,45,100,74,24,30.17,30.13,30.04,16,7,3,13,5,,0.00,1,,224
2012-11-25,74,61,48,55,48,43,88,66,27,30.16,30.08,29.98,16,13,9,9,4,,0.00,,,190
2012-11-26,68,60,50,55,47,41,94,65,34,30.06,29.98,29.88,12,9,6,16,10,,0.00,4,,231
2012-11-27,55,52,42,52,46,38,100,81,42,29.91,29.85,29.80,12,7,5,20,9,34,0.03,3,Rain,259
2012-11-28,55,48,42,41,39,34,93,71,40,29.95,29.87,29.80,16,7,2,22,14,30,0.08,3,Rain,270
2012-11-29,54,48,42,44,39,36,81,73,58,29.96,29.92,29.88,12,7,6,24,18,36,0.00,2,,257
2012-11-30,51,46,42,41,39,37,87,74,63,29.94,29.78,29.68,9,7,6,28,15,,0.00,5,,241